CAPE
0 0 0 0 0 0 0 0 0 0 0 0 0 0 0 0 0 0 0 0 0 0 0 0 0 0 0 0 0 0 0 0 0 0 0 0 107 431 700 657 513 651 676
0 0 0 0 0 0 0 0 0 0 0 0 0 0 0 0 0 0 0 0 0 0 0 0 0 0 0 0 0 0 0 0 0 0 0 0 0 4 321 869 474 570 698
0 0 0 0 0 0 0 0 0 0 0 0 0 0 0 0 0 0 0 0 0 0 0 0 0 0 0 0 0 0 0 0 0 0 0 0 0 0 0 129 848 463 367
0 0 0 0 0 0 0 0 0 0 0 0 0 0 0 0 0 0 0 0 0 0 0 0 0 0 0 0 0 0 0 0 0 0 0 0 0 0 0 0 770 691 297
0 0 0 0 0 0 0 0 0 0 0 0 0 0 0 0 0 0 0 0 0 0 0 0 0 0 0 0 0 0 0 0 0 0 0 0 0 0 0 19 174 922 635
0 0 0 0 0 0 0 0 0 0 0 0 0 0 0 0 0 0 0 0 0 0 0 0 41 74 84 80 81 58 49 94 143 17 0 0 0 0 63 246 533 655 727
0 0 0 0 0 0 0 0 0 0 0 0 0 0 0 0 0 0 0 0 0 14 37 61 134 199 341 304 306 337 366 324 244 156 63 3 0 14 128 609 415 478 578
0 0 0 0 0 0 0 0 0 0 0 0 0 0 0 0 0 0 0 5 32 75 160 234 266 346 345 238 224 238 229 242 289 258 189 68 0 31 297 915 756 505 569
0 0 0 0 0 0 0 0 0 0 0 0 0 0 0 0 0 0 0 25 93 163 212 292 491 546 313 283 203 159 111 114 139 243 254 131 63 19 333 967 724 454 313
0 0 0 0 0 0 0 21 3 0 0 0 0 0 0 0 0 0 7 39 112 156 277 432 610 640 375 288 175 151 156 175 196 161 276 255 276 145 294 589 802 626 508
0 0 0 0 0 0 0 54 116 31 4 0 1 2 12 17 7 0 33 31 97 119 270 467 649 649 447 340 246 219 258 149 80 125 203 271 445 426 408 535 779 736 285
11 8 0 0 0 0 0 28 105 66 101 40 27 46 86 45 0 0 21 51 79 149 244 451 722 733 557 254 184 233 166 99 7 1 61 223 443 615 530 463 728 633 332
0 20 5 0 0 0 0 1 44 91 63 76 29 28 144 95 22 106 20 129 156 205 278 538 703 896 589 277 153 110 5 0 0 0 0 72 297 458 385 597 673 713 437
0 0 17 50 20 0 0 0 1 38 78 38 42 90 55 50 0 0 0 3 58 147 262 460 566 744 678 361 137 60 9 0 0 0 0 31 243 436 452 622 799 589 297
0 0 0 30 57 61 21 5 6 4 64 67 79 82 72 36 0 0 0 0 4 38 78 348 566 580 539 346 115 54 28 4 0 0 0 38 190 368 617 746 758 652 333
0 0 0 0 1 35 45 38 39 4 64 91 64 85 96 53 8 0 0 0 0 0 0 251 458 539 480 279 91 46 42 15 11 0 1 11 112 112 200 298 617 717 528
0 0 0 0 0 0 8 34 37 44 74 104 90 116 142 91 23 0 0 0 0 0 0 261 457 313 322 174 100 82 47 21 2 0 0 0 19 35 130 188 173 396 417
0 0 0 0 0 0 0 30 108 127 146 177 167 207 232 138 72 6 0 0 0 0 0 298 208 217 272 151 60 65 2 4 1 0 0 0 10 33 59 83 179 255 251
0 0 0 0 0 0 0 50 171 218 264 250 284 340 333 277 179 100 11 0 0 0 134 193 127 247 243 63 67 64 37 48 38 4 3 2 4 38 56 219 230 218 153
0 0 0 0 0 0 0 43 165 285 368 396 419 433 445 404 343 197 116 38 48 129 237 141 233 137 202 202 111 87 66 38 32 24 19 23 13 29 65 66 189 204 86
0 0 0 0 0 0 0 11 161 318 379 506 511 552 549 523 431 325 269 179 155 430 253 158 161 227 134 60 36 13 20 23 16 31 21 23 48 28 33 78 72 81 101
0 0 0 0 0 0 0 47 254 284 323 496 618 697 720 628 517 576 528 395 434 293 140 141 134 28 0 0 4 0 10 0 0 3 23 38 34 47 34 45 42 51 54
0 0 0 0 0 0 0 36 117 176 274 480 626 740 730 719 706 694 504 512 315 166 197 57 1 0 1 0 0 0 0 1 0 0 10 25 30 61 36 16 20 46 45
0 0 0 0 0 0 49 127 166 260 476 566 709 737 795 764 731 590 404 148 55 120 206 47 0 0 0 0 0 0 0 0 0 0 5 4 17 50 24 15 34 58 60
0 0 0 0 44 139 277 324 383 527 454 477 567 656 601 462 554 217 68 117 248 210 35 0 0 0 0 0 0 0 0 0 0 0 2 40 26 18 5 21 36 47 83
0 0 0 135 270 402 450 417 478 496 361 350 246 177 83 42 111 228 189 233 79 0 0 0 0 0 0 0 0 0 0 0 0 0 0 24 25 12 26 6 19 19 49
CIN
-0 -0 -0 -0 -0 -0 -0 -0 -0 -0 -0 -0 -0 -0 -0 -0 -0 -0 -0 -0 -0 -0 -0 -0 -0 -0 -0 -0 -0 -0 -0 -0 -0 -0 -0 -0 -100 -47 -30 -20 -22 -4 -8
-0 -0 -0 -0 -0 -0 -0 -0 -0 -0 -0 -0 -0 -0 -0 -0 -0 -0 -0 -0 -0 -0 -0 -0 -0 -0 -0 -0 -0 -0 -0 -0 -0 -0 -0 -0 -0 -3 -72 -13 -42 -21 -9
-0 -0 -1 -0 -0 -0 -0 -0 -0 -0 -0 -0 -0 -0 -0 -0 -0 -0 -0 -0 -0 -0 -0 -0 -0 -0 -0 -0 -0 -0 -0 -0 -0 -0 -0 -0 -0 -0 -0 -138 -1 -31 -36
-0 -0 -0 -0 -0 -0 -0 -0 -0 -0 -0 -0 -0 -0 -0 -0 -0 -0 -0 -0 -0 -0 -0 -0 -0 -0 -0 -0 -0 -0 -0 -0 -0 -0 -0 -0 -0 -0 -0 -0 -9 -9 -46
-0 -0 -0 -0 -0 -0 -0 -0 -0 -0 -0 -0 -0 -0 -0 -0 -0 -0 -0 -0 -0 -0 -0 -0 -0 -0 -0 -0 -0 -0 -0 -0 -0 -0 -0 -0 -0 -0 -0 -120 -107 -1 -21
-0 -0 -0 -0 -0 -0 -0 -0 -0 -0 -0 -0 -0 -0 -0 -0 -0 -0 -0 -0 -0 -0 -0 -0 -255 -186 -141 -103 -67 -46 -26 -6 -5 -102 -0 -0 -0 -0 -134 -43 -19 -18 -21
-0 -0 -0 -0 -0 -0 -0 -0 -0 -0 -0 -0 -0 -0 -0 -0 -0 -0 -0 -0 -0 -392 -326 -284 -215 -153 -85 -78 -51 -21 -6 -0 -0 -15 -93 -96 -0 -266 -73 -18 -27 -24 -20
-0 -0 -0 -0 -0 -0 -0 -0 -0 -0 -0 -0 -0 -0 -0 -0 -0 -0 -0 -442 -460 -363 -263 -211 -180 -119 -99 -135 -123 -81 -60 -28 -2 -3 -26 -121 -0 -206 -22 -7 -8 -17 -19
-0 -0 -0 -0 -0 -0 -0 -0 -0 -0 -0 -0 -0 -0 -0 -0 -0 -0 -35 -520 -403 -315 -271 -210 -130 -91 -142 -135 -172 -183 -177 -138 -91 -22 -16 -64 -148 -236 -20 -2 -3 -10 -25
-0 -0 -0 -0 -0 -0 -0 -683 -294 -0 -0 -0 -0 -0 -0 -0 -0 -0 -577 -475 -376 -325 -249 -176 -110 -91 -150 -156 -210 -211 -189 -144 -94 -87 -27 -20 -25 -79 -20 -13 -7 -8 -13
-0 -0 -0 -0 -0 -0 -0 -702 -648 -699 -204 -0 -143 -207 -623 -627 -565 -0 -515 -470 -365 -327 -237 -165 -109 -91 -124 -137 -164 -159 -125 -164 -184 -124 -56 -21 -8 -17 -18 -14 -6 -7 -22
-234 -316 -0 -0 -0 -0 -0 -793 -681 -700 -689 -734 -715 -672 -626 -658 -0 -1 -494 -406 -358 -305 -247 -165 -83 -76 -95 -178 -196 -142 -170 -183 -87 -24 -148 -28 -7 -3 -15 -20 -10 -13 -21
-0 -216 -313 -0 -0 -0 -0 -359 -795 -746 -762 -750 -768 -736 -636 -644 -603 -483 -495 -369 -334 -282 -242 -138 -82 -46 -83 -143 -194 -203 -135 -0 -0 -0 -114 -121 -19 -14 -25 -16 -14 -12 -15
-0 -0 -268 -393 -501 -72 -0 -0 -508 -785 -798 -817 -800 -768 -733 -703 -0 -0 -0 -256 -410 -313 -240 -145 -97 -56 -47 -103 -168 -195 -200 -0 -0 -0 -0 -151 -28 -16 -25 -12 -8 -16 -25
-0 -0 -0 -344 -366 -505 -643 -768 -807 -733 -824 -827 -838 -823 -746 -724 -0 -0 -0 -0 -443 -394 -312 -171 -97 -75 -66 -89 -147 -150 -137 -57 -0 -0 -12 -105 -25 -13 -12 -7 -5 -12 -25
-0 -0 -0 -0 -264 -555 -557 -648 -634 -564 -854 -848 -822 -805 -736 -721 -729 -0 -0 -0 -0 -29 -0 -216 -104 -49 -63 -99 -126 -122 -81 -125 -117 -0 -20 -68 -35 -19 -14 -11 -7 -9 -14
-0 -0 -0 -0 -0 -39 -470 -566 -733 -770 -802 -789 -809 -793 -731 -692 -705 -0 -0 -0 -0 -0 -0 -226 -107 -104 -95 -114 -117 -70 -52 -77 -117 -0 -0 -0 -48 -42 -29 -18 -23 -17 -13
-0 -0 -0 -0 -0 -0 -0 -555 -691 -766 -752 -771 -798 -749 -665 -635 -643 -631 -0 -0 -0 -0 -22 -119 -144 -97 -78 -97 -89 -48 -13 -37 -15 -0 -0 -0 -50 -46 -42 -22 -23 -21 -22
-0 -0 -0 -0 -0 -0 -0 -645 -717 -702 -756 -760 -735 -667 -599 -564 -593 -571 -603 -0 -0 -0 -241 -148 -156 -67 -45 -96 -67 -50 -60 -63 -77 -77 -37 -35 -52 -43 -48 -27 -22 -26 -28
-0 -0 -0 -0 -0 -0 -0 -801 -747 -721 -707 -674 -643 -598 -527 -483 -486 -528 -485 -465 -394 -241 -126 -158 -83 -100 -47 -33 -39 -44 -64 -84 -92 -83 -69 -47 -51 -42 -54 -41 -30 -31 -36
-0 -0 -0 -0 -0 -0 -0 -623 -646 -538 -646 -601 -572 -499 -453 -426 -450 -439 -380 -327 -269 -94 -105 -112 -83 -35 -49 -73 -55 -97 -89 -87 -82 -66 -83 -46 -43 -49 -59 -53 -58 -48 -38
-0 -0 -0 -0 -0 -0 -0 -659 -594 -646 -656 -552 -478 -407 -363 -374 -381 -297 -230 -184 -131 -116 -123 -72 -50 -70 -0 -0 -48 -0 -73 -4 -0 -76 -71 -57 -54 -62 -58 -61 -68 -52 -55
-0 -0 -0 -0 -0 -0 -0 -731 -697 -656 -610 -495 -421 -352 -333 -298 -250 -195 -177 -120 -135 -129 -50 -65 -5 -0 -12 -0 -0 -0 -0 -10 -0 -0 -93 -66 -60 -54 -57 -62 -67 -64 -62
-0 -0 -0 -0 -0 -0 -703 -559 -418 -322 -320 -404 -360 -335 -279 -228 -174 -146 -144 -210 -195 -106 -62 -87 -0 -0 -0 -0 -0 -0 -0 -0 -0 -0 -93 -89 -74 -55 -63 -60 -57 -53 -65
-0 -0 -0 -10 -573 -593 -556 -482 -414 -357 -389 -417 -366 -299 -270 -244 -146 -210 -232 -176 -84 -77 -112 -0 -0 -0 -0 -0 -0 -0 -0 -0 -0 -1 -14 -43 -67 -80 -101 -70 -62 -60 -69
-0 -0 -0 -506 -513 -540 -502 -478 -387 -367 -419 -401 -398 -358 -347 -326 -264 -179 -150 -96 -130 -0 -0 -0 -0 -0 -0 -0 -0 -0 -0 -0 -0 -28 -17 -35 -27 -66 -82 -90 -81 -79 -79
Wind_Speed
17 19 19 18 18 19 20 19 20 20 20 20 20 21 21 20 19 19 18 18 18 18 18 18 17 16 17 17 17 17 18 19 19 19 19 19 18 17 16 13 11 10 7
17 18 19 19 18 19 19 19 19 19 19 19 19 19 20 19 19 18 18 18 18 19 19 19 18 18 17 17 17 18 18 19 20 20 20 20 19 18 18 15 11 10 7
15 16 17 18 18 19 19 18 18 18 17 17 17 17 17 17 17 17 17 17 18 19 19 20 20 19 18 18 18 18 18 19 20 20 21 21 21 20 18 19 12 11 9
14 14 15 17 17 18 18 16 15 15 16 15 15 15 15 14 15 15 15 16 17 18 18 19 19 19 19 19 18 19 19 19 20 20 20 21 21 21 21 21 16 12 10
11 13 12 16 17 16 16 14 13 12 13 13 13 12 12 12 13 14 14 15 15 16 17 18 19 19 19 19 18 18 19 20 20 20 21 21 21 22 23 23 22 16 13
8 10 12 14 14 14 13 10 10 11 10 11 11 10 10 10 10 11 13 13 14 14 15 17 18 20 19 18 17 17 18 20 21 20 22 22 22 23 25 26 24 16 16
8 9 11 11 12 12 10 9 9 8 9 8 8 8 8 8 8 8 10 11 12 12 14 15 17 19 20 21 19 20 20 21 21 20 21 23 22 24 25 23 15 14 15
5 7 8 8 10 10 9 7 7 7 7 6 6 5 6 6 6 6 6 8 9 10 11 13 15 17 19 20 20 21 21 22 22 21 19 21 22 24 24 20 16 14 15
3 4 5 5 6 5 5 4 6 6 6 5 4 4 3 3 3 3 3 4 6 7 9 11 13 16 17 18 18 20 20 21 21 20 19 19 23 22 23 20 19 17 16
3 1 3 2 3 2 2 3 4 5 5 5 4 4 3 2 1 1 1 2 4 6 8 9 11 12 14 15 17 18 19 20 19 20 20 20 22 23 21 23 21 20 20
5 2 3 4 5 6 6 6 5 6 7 7 6 5 5 4 3 3 3 3 4 5 7 9 10 11 13 14 16 17 19 19 17 18 21 21 22 23 23 22 24 22 21
8 6 6 7 8 7 9 8 8 7 7 8 8 8 8 8 6 6 5 5 5 6 8 9 10 10 12 13 16 17 19 18 15 16 19 22 23 24 24 24 25 21 21
10 11 9 10 10 10 10 10 10 10 10 10 11 11 11 10 9 8 8 8 7 7 10 10 11 10 10 12 15 17 18 18 14 15 17 21 22 24 25 24 24 21 23
13 13 13 14 14 14 15 14 13 14 12 12 13 13 13 12 12 10 9 9 9 10 12 11 10 11 9 11 13 15 16 17 17 16 18 21 22 23 23 23 23 22 22
14 14 16 17 18 19 17 18 16 16 15 14 14 14 14 14 13 12 11 11 10 12 15 15 13 11 11 11 13 14 14 15 17 18 20 20 21 21 21 23 23 20 20
18 18 20 22 20 18 18 19 18 17 15 13 14 14 14 14 13 13 12 12 12 12 15 15 11 12 12 12 14 15 15 15 17 19 20 22 23 24 25 26 21 18 19
27 31 32 28 23 21 19 18 17 16 14 13 13 13 12 12 11 11 12 12 11 12 14 14 10 14 14 14 16 17 17 16 19 21 22 23 25 26 27 27 21 17 21
42 47 45 34 28 22 19 17 16 15 13 12 11 11 10 10 8 9 10 10 10 13 13 11 11 14 14 14 16 17 16 20 21 21 22 24 25 25 24 24 17 15 20
48 46 45 35 27 20 18 18 17 14 12 11 12 12 11 9 7 7 8 9 9 9 10 10 12 14 15 17 18 19 19 21 23 21 23 25 23 24 22 19 15 15 22
47 45 42 36 28 20 18 17 16 13 13 12 13 13 12 8 6 6 7 9 8 7 8 11 13 13 16 19 20 23 25 20 19 19 20 20 20 23 22 18 17 17 21
48 43 40 35 25 18 17 14 14 14 13 13 13 12 9 6 5 5 7 7 6 6 7 10 14 13 13 15 18 22 21 18 20 19 18 21 21 22 21 19 17 19 21
42 42 40 34 22 16 12 13 15 12 13 13 13 9 6 5 4 5 5 4 4 6 9 10 10 14 13 10 13 16 20 20 21 18 18 22 23 22 22 21 18 20 21
43 41 39 30 20 12 10 10 11 12 12 10 8 7 5 4 3 3 3 3 3 6 7 8 10 8 9 8 8 12 13 15 18 17 17 19 22 22 22 19 20 24 23
43 38 33 26 15 9 7 6 6 9 7 8 5 4 3 3 3 2 4 5 5 6 8 9 8 7 8 7 7 6 11 13 14 16 16 18 20 21 20 19 21 21 21
40 32 27 17 11 7 5 4 6 5 7 6 4 4 4 5 3 4 6 7 7 7 8 8 7 6 5 7 8 8 5 12 16 16 17 17 19 20 18 18 19 19 18
27 22 17 12 8 4 3 3 3 3 4 4 4 4 5 5 5 5 7 7 8 8 8 7 7 7 7 7 7 7 8 9 14 15 16 17 19 18 16 15 15 17 18
Wind_Direction
124 119 118 111 104 101 104 102 99 96 94 92 88 82 78 76 71 66 57 47 41 34 27 17 10 358 349 344 339 333 325 315 309 308 309 310 308 304 309 314 317 326 344
110 115 118 117 112 111 110 109 105 103 99 94 88 82 79 75 71 68 62 54 47 40 35 28 20 9 357 347 339 333 326 319 312 305 302 301 300 300 295 304 310 311 328
107 113 117 120 119 118 118 115 111 107 101 96 91 85 80 73 69 65 60 54 49 43 39 33 29 22 10 356 345 336 330 322 315 310 302 297 294 291 293 287 301 301 304
110 115 116 124 125 127 121 114 114 110 103 100 93 87 80 70 63 58 52 48 46 45 41 37 33 27 20 10 358 345 335 327 319 311 307 298 292 288 285 283 289 295 295
108 119 119 127 132 132 128 117 119 111 105 99 92 86 79 69 56 50 44 42 41 41 39 35 31 27 21 15 9 359 346 332 324 316 307 301 295 288 283 282 278 281 284
103 119 126 131 132 132 131 119 120 119 112 107 93 85 81 65 55 46 44 40 36 36 34 29 24 17 18 16 10 0 347 335 325 318 305 299 295 289 285 278 277 277 277
108 122 132 136 140 139 136 132 133 129 123 115 107 91 84 81 76 60 50 45 41 34 31 31 23 14 5 3 360 352 342 330 323 323 310 298 296 288 288 282 286 278 278
101 118 127 143 151 148 145 145 148 145 142 137 118 113 97 95 89 76 57 46 46 37 32 30 24 14 8 2 359 348 340 329 322 316 319 302 296 289 287 285 284 283 280
43 119 135 149 161 158 165 168 167 166 166 159 161 150 128 122 98 85 53 43 40 33 26 22 18 9 9 8 5 356 349 336 327 319 314 311 295 293 287 285 281 280 281
5 113 170 198 245 251 253 249 221 195 204 207 205 215 214 197 194 29 355 3 9 13 13 13 13 15 13 11 6 1 353 341 332 319 309 306 299 290 291 281 279 278 278
318 287 246 220 263 268 278 272 262 238 230 237 244 249 265 283 283 276 291 298 327 345 351 356 359 7 4 8 5 1 356 350 339 325 308 300 297 290 288 284 277 274 276
292 284 241 251 256 270 281 280 271 269 252 260 265 268 277 288 280 280 277 280 302 320 332 338 344 354 357 1 0 357 354 354 348 331 313 299 293 287 285 282 278 274 274
270 291 266 270 276 275 272 281 277 279 271 256 262 271 285 289 287 281 278 287 298 308 323 328 332 339 346 352 354 352 352 354 356 337 323 305 296 287 281 282 277 276 272
289 276 290 284 279 277 284 278 275 274 267 265 267 276 283 286 280 275 273 274 288 304 316 322 326 329 333 340 346 347 348 347 344 335 320 307 298 289 283 281 277 275 272
294 282 292 299 290 284 280 284 278 267 268 273 279 276 279 285 279 273 275 277 284 303 310 315 319 321 324 327 336 338 339 341 334 326 316 310 300 292 287 279 278 275 270
302 304 303 298 293 291 284 281 276 273 274 267 277 276 274 283 282 269 271 278 289 297 307 312 311 317 318 322 327 332 331 331 328 317 312 303 293 285 278 275 278 273 268
302 306 307 307 298 287 284 286 279 273 265 264 271 281 282 284 278 271 270 282 280 294 302 313 311 317 318 318 321 324 323 320 316 311 305 299 289 282 275 270 275 271 266
298 299 303 306 303 291 281 285 285 279 270 270 279 291 292 290 279 269 270 277 282 301 307 309 313 315 315 316 318 320 320 314 309 306 299 293 284 282 278 274 280 269 266
297 299 301 305 304 294 286 289 289 284 278 284 291 298 301 290 280 272 279 288 296 300 308 311 316 316 316 317 318 318 318 313 303 301 294 288 284 277 277 280 278 274 265
295 299 300 304 303 300 299 295 295 288 289 292 295 297 302 293 289 291 299 305 312 313 316 323 321 321 321 321 320 316 313 314 307 305 293 290 284 276 272 276 272 272 267
290 293 297 304 303 300 297 294 292 288 292 297 300 304 303 294 295 301 311 321 330 321 323 330 333 331 328 327 328 322 317 312 305 301 291 278 278 275 269 270 269 266 267
284 285 292 304 303 301 295 299 306 305 306 304 307 309 305 298 303 309 323 333 335 336 336 340 344 341 341 346 342 337 324 316 303 297 288 274 268 269 265 263 261 263 265
278 284 296 306 304 302 300 309 323 331 327 316 313 311 307 305 308 325 348 2 359 349 348 351 344 351 355 3 5 355 353 332 314 301 289 275 265 265 262 262 261 258 261
274 289 300 302 301 296 296 305 311 323 325 324 329 334 332 326 341 18 11 8 4 358 352 350 358 11 9 16 17 26 6 352 328 304 293 272 263 257 258 260 259 262 259
283 294 299 300 295 293 296 314 328 341 340 359 14 28 18 4 25 19 11 3 360 2 1 3 20 59 56 42 37 30 46 331 319 306 288 276 257 257 259 259 259 258 259
292 297 300 301 299 298 309 333 355 25 24 50 51 38 9 19 26 13 360 6 7 5 6 21 33 51 83 78 83 55 46 354 312 299 289 269 252 255 261 265 262 258 256